Time,TemperatureF,DewpointF,PressureIn,WindDirection,WindDirectionDegrees,WindSpeedMPH,WindSpeedGustMPH,Humidity,HourlyPrecipIn,Conditions,Clouds,dailyrainin,SoftwareType,DateUTC
2014-01-19 00:11:00,60.7,17.0,30.10,NNE,25,1.0,1.0,18,0.00,,,0.00,weatherlink.com 1.10,2014-01-19 08:11:00,
2014-01-19 00:26:00,60.1,16.0,30.10,NE,52,0.0,1.0,18,0.00,,,0.00,weatherlink.com 1.10,2014-01-19 08:26:00,
2014-01-19 00:41:00,61.1,16.0,30.10,NNE,23,0.0,1.0,17,0.00,,,0.00,weatherlink.com 1.10,2014-01-19 08:41:00,
2014-01-19 00:56:00,60.7,17.0,30.10,North,6,1.0,2.0,18,0.00,,,0.00,weatherlink.com 1.10,2014-01-19 08:56:00,
2014-01-19 01:11:00,60.8,15.0,30.10,North,10,0.0,1.0,17,0.00,,,0.00,weatherlink.com 1.10,2014-01-19 09:11:00,
2014-01-19 01:26:00,60.9,17.0,30.10,North,11,0.0,1.0,18,0.00,,,0.00,weatherlink.com 1.10,2014-01-19 09:26:00,
2014-01-19 01:41:00,61.0,17.0,30.10,North,11,0.0,1.0,18,0.00,,,0.00,weatherlink.com 1.10,2014-01-19 09:41:00,
2014-01-19 01:56:00,60.4,16.0,30.10,NNE,30,0.0,1.0,18,0.00,,,0.00,weatherlink.com 1.10,2014-01-19 09:56:00,
2014-01-19 02:11:00,60.1,19.0,30.10,NNE,28,1.0,2.0,20,0.00,,,0.00,weatherlink.com 1.10,2014-01-19 10:11:00,
2014-01-19 02:26:00,59.4,16.0,30.10,NE,56,1.0,3.0,18,0.00,,,0.00,weatherlink.com 1.10,2014-01-19 10:26:00,
2014-01-19 02:41:00,59.7,15.0,30.10,NNE,15,0.0,1.0,17,0.00,,,0.00,weatherlink.com 1.10,2014-01-19 10:41:00,
2014-01-19 02:56:00,59.4,14.0,30.11,NE,36,1.0,1.0,17,0.00,,,0.00,weatherlink.com 1.10,2014-01-19 10:56:00,
2014-01-19 03:11:00,59.7,15.0,30.11,NE,49,1.0,1.0,17,0.00,,,0.00,weatherlink.com 1.10,2014-01-19 11:11:00,
2014-01-19 03:26:00,63.5,10.0,30.10,NE,44,1.0,5.0,12,0.00,,,0.00,weatherlink.com 1.10,2014-01-19 11:26:00,
2014-01-19 03:41:00,60.1,14.0,30.10,NE,46,0.0,2.0,16,0.00,,,0.00,weatherlink.com 1.10,2014-01-19 11:41:00,
2014-01-19 03:56:00,59.9,12.0,30.09,NE,46,0.0,4.0,15,0.00,,,0.00,weatherlink.com 1.10,2014-01-19 11:56:00,
2014-01-19 04:11:00,58.9,13.0,30.10,NNE,15,1.0,2.0,16,0.00,,,0.00,weatherlink.com 1.10,2014-01-19 12:11:00,
2014-01-19 04:26:00,58.2,12.0,30.09,ENE,59,1.0,1.0,16,0.00,,,0.00,weatherlink.com 1.10,2014-01-19 12:26:00,
2014-01-19 04:41:00,57.3,14.0,30.10,NNE,14,1.0,2.0,18,0.00,,,0.00,weatherlink.com 1.10,2014-01-19 12:41:00,
2014-01-19 04:56:00,58.1,15.0,30.10,NNE,14,1.0,1.0,18,0.00,,,0.00,weatherlink.com 1.10,2014-01-19 12:56:00,
2014-01-19 05:11:00,58.0,14.0,30.10,NE,42,1.0,1.0,18,0.00,,,0.00,weatherlink.com 1.10,2014-01-19 13:11:00,
2014-01-19 05:26:00,57.9,13.0,30.11,NNE,12,1.0,1.0,17,0.00,,,0.00,weatherlink.com 1.10,2014-01-19 13:26:00,
2014-01-19 05:41:00,60.1,10.0,30.11,NW,325,1.0,2.0,14,0.00,,,0.00,weatherlink.com 1.10,2014-01-19 13:41:00,
2014-01-19 05:56:00,59.2,11.0,30.11,NNE,28,0.0,1.0,15,0.00,,,0.00,weatherlink.com 1.10,2014-01-19 13:56:00,
2014-01-19 06:11:00,58.9,13.0,30.11,NNE,28,1.0,2.0,16,0.00,,,0.00,weatherlink.com 1.10,2014-01-19 14:11:00,
2014-01-19 06:26:00,57.8,14.0,30.12,NNE,27,1.0,1.0,18,0.00,,,0.00,weatherlink.com 1.10,2014-01-19 14:26:00,
2014-01-19 06:41:00,57.1,15.0,30.12,NNE,23,1.0,2.0,19,0.00,,,0.00,weatherlink.com 1.10,2014-01-19 14:41:00,
2014-01-19 06:56:00,56.1,13.0,30.13,NE,34,0.0,1.0,18,0.00,,,0.00,weatherlink.com 1.10,2014-01-19 14:56:00,
2014-01-19 07:11:00,56.4,13.0,30.13,NNE,13,1.0,1.0,18,0.00,,,0.00,weatherlink.com 1.10,2014-01-19 15:11:00,
2014-01-19 07:26:00,56.8,12.0,30.13,NNE,13,0.0,2.0,17,0.00,,,0.00,weatherlink.com 1.10,2014-01-19 15:26:00,
2014-01-19 07:41:00,57.8,13.0,30.13,NE,56,0.0,1.0,17,0.00,,,0.00,weatherlink.com 1.10,2014-01-19 15:41:00,
2014-01-19 08:11:00,61.9,12.0,30.14,WNW,295,4.0,4.0,14,0.00,,,0.00,weatherlink.com 1.10,2014-01-19 16:11:00,
2014-01-19 08:26:00,63.0,11.0,30.15,WNW,297,2.0,5.0,13,0.00,,,0.00,weatherlink.com 1.10,2014-01-19 16:26:00,
2014-01-19 08:41:00,64.0,14.0,30.15,WNW,296,1.0,3.0,14,0.00,,,0.00,weatherlink.com 1.10,2014-01-19 16:41:00,
2014-01-19 08:57:00,65.7,20.0,30.15,WSW,256,0.0,2.0,17,0.00,,,0.00,weatherlink.com 1.10,2014-01-19 16:57:00,
2014-01-19 09:12:00,67.9,11.0,30.16,WNW,298,2.0,3.0,11,0.00,,,0.00,weatherlink.com 1.10,2014-01-19 17:12:00,
2014-01-19 09:27:00,69.9,11.0,30.16,WSW,253,1.0,3.0,10,0.00,,,0.00,weatherlink.com 1.10,2014-01-19 17:27:00,
2014-01-19 09:42:00,71.2,12.0,30.16,NW,305,1.0,5.0,10,0.00,,,0.00,weatherlink.com 1.10,2014-01-19 17:42:00,
2014-01-19 09:57:00,72.8,15.0,30.17,SSE,160,0.0,2.0,11,0.00,,,0.00,weatherlink.com 1.10,2014-01-19 17:57:00,
2014-01-19 10:12:00,72.1,19.0,30.17,SW,230,0.0,1.0,13,0.00,,,0.00,weatherlink.com 1.10,2014-01-19 18:12:00,
2014-01-19 10:27:00,71.2,18.0,30.17,WNW,295,0.0,2.0,13,0.00,,,0.00,weatherlink.com 1.10,2014-01-19 18:27:00,
2014-01-19 10:42:00,71.6,21.0,30.17,SW,233,0.0,0.0,15,0.00,,,0.00,weatherlink.com 1.10,2014-01-19 18:42:00,
2014-01-19 10:57:00,72.0,15.0,30.16,ENE,63,4.0,6.0,11,0.00,,,0.00,weatherlink.com 1.10,2014-01-19 18:57:00,
2014-01-19 11:12:00,72.6,17.0,30.16,SW,221,0.0,1.0,12,0.00,,,0.00,weatherlink.com 1.10,2014-01-19 19:12:00,
2014-01-19 11:27:00,72.9,19.0,30.15,SW,220,2.0,3.0,13,0.00,,,0.00,weatherlink.com 1.10,2014-01-19 19:27:00,
2014-01-19 11:42:00,74.1,22.0,30.15,SW,230,0.0,2.0,14,0.00,,,0.00,weatherlink.com 1.10,2014-01-19 19:42:00,
2014-01-19 11:57:00,74.4,24.0,30.14,WSW,249,3.0,3.0,15,0.00,,,0.00,weatherlink.com 1.10,2014-01-19 19:57:00,
2014-01-19 12:12:00,76.4,16.0,30.13,West,264,1.0,5.0,10,0.00,,,0.00,weatherlink.com 1.10,2014-01-19 20:12:00,
2014-01-19 12:27:00,79.0,20.0,30.12,South,179,2.0,5.0,11,0.00,,,0.00,weatherlink.com 1.10,2014-01-19 20:27:00,
2014-01-19 12:42:00,78.0,19.0,30.12,SW,234,2.0,7.0,11,0.00,,,0.00,weatherlink.com 1.10,2014-01-19 20:42:00,
2014-01-19 12:57:00,78.5,20.0,30.11,WSW,243,3.0,6.0,11,0.00,,,0.00,weatherlink.com 1.10,2014-01-19 20:57:00,
2014-01-19 13:12:00,78.9,22.0,30.11,South,172,3.0,7.0,12,0.00,,,0.00,weatherlink.com 1.10,2014-01-19 21:12:00,
2014-01-19 13:27:00,78.8,18.0,30.10,SW,233,4.0,7.0,10,0.00,,,0.00,weatherlink.com 1.10,2014-01-19 21:27:00,
2014-01-19 13:42:00,78.5,17.0,30.10,WSW,256,5.0,8.0,10,0.00,,,0.00,weatherlink.com 1.10,2014-01-19 21:42:00,
2014-01-19 13:57:00,78.9,18.0,30.10,WSW,255,3.0,7.0,10,0.00,,,0.00,weatherlink.com 1.10,2014-01-19 21:57:00,
2014-01-19 14:12:00,79.5,18.0,30.09,SW,224,5.0,9.0,10,0.00,,,0.00,weatherlink.com 1.10,2014-01-19 22:12:00,
2014-01-19 14:27:00,79.2,18.0,30.09,South,183,2.0,5.0,10,0.00,,,0.00,weatherlink.com 1.10,2014-01-19 22:27:00,
2014-01-19 14:42:00,78.9,26.0,30.09,West,261,4.0,9.0,14,0.00,,,0.00,weatherlink.com 1.10,2014-01-19 22:42:00,
2014-01-19 14:57:00,77.8,28.0,30.09,SW,219,3.0,7.0,16,0.00,,,0.00,weatherlink.com 1.10,2014-01-19 22:57:00,
2014-01-19 15:12:00,76.4,28.0,30.09,SW,217,3.0,6.0,17,0.00,,,0.00,weatherlink.com 1.10,2014-01-19 23:12:00,
2014-01-19 15:27:00,77.3,28.0,30.08,South,183,2.0,5.0,16,0.00,,,0.00,weatherlink.com 1.10,2014-01-19 23:27:00,
2014-01-19 15:42:00,76.0,29.0,30.09,SW,215,0.0,4.0,18,0.00,,,0.00,weatherlink.com 1.10,2014-01-19 23:42:00,
2014-01-19 15:57:00,75.2,33.0,30.09,SSW,213,2.0,2.0,21,0.00,,,0.00,weatherlink.com 1.10,2014-01-19 23:57:00,
2014-01-19 16:12:00,73.1,32.0,30.09,SW,214,1.0,2.0,22,0.00,,,0.00,weatherlink.com 1.10,2014-01-20 00:12:00,
2014-01-19 16:27:00,71.3,33.0,30.09,SW,214,0.0,1.0,24,0.00,,,0.00,weatherlink.com 1.10,2014-01-20 00:27:00,
2014-01-19 16:42:00,68.7,32.0,30.09,SW,214,0.0,0.0,26,0.00,,,0.00,weatherlink.com 1.10,2014-01-20 00:42:00,
2014-01-19 16:57:00,66.7,29.0,30.09,SW,214,0.0,1.0,24,0.00,,,0.00,weatherlink.com 1.10,2014-01-20 00:57:00,
2014-01-19 17:12:00,65.3,25.0,30.09,SW,214,1.0,1.0,22,0.00,,,0.00,weatherlink.com 1.10,2014-01-20 01:12:00,
2014-01-19 17:27:00,64.3,26.0,30.10,SW,214,1.0,1.0,23,0.00,,,0.00,weatherlink.com 1.10,2014-01-20 01:27:00,
2014-01-19 17:42:00,63.6,24.0,30.10,SW,214,1.0,1.0,22,0.00,,,0.00,weatherlink.com 1.10,2014-01-20 01:42:00,
2014-01-19 17:57:00,64.0,29.0,30.11,SW,214,0.0,1.0,27,0.00,,,0.00,weatherlink.com 1.10,2014-01-20 01:57:00,
2014-01-19 18:12:00,62.3,29.0,30.11,SW,215,1.0,1.0,29,0.00,,,0.00,weatherlink.com 1.10,2014-01-20 02:12:00,
2014-01-19 18:27:00,61.8,22.0,30.11,NNE,19,1.0,2.0,22,0.00,,,0.00,weatherlink.com 1.10,2014-01-20 02:27:00,
2014-01-19 18:42:00,62.4,18.0,30.12,NNE,21,2.0,2.0,18,0.00,,,0.00,weatherlink.com 1.10,2014-01-20 02:42:00,
2014-01-19 18:57:00,62.3,24.0,30.12,NNE,20,1.0,2.0,23,0.00,,,0.00,weatherlink.com 1.10,2014-01-20 02:57:00,
2014-01-19 19:12:00,62.4,25.0,30.12,North,5,1.0,1.0,24,0.00,,,0.00,weatherlink.com 1.10,2014-01-20 03:12:00,
2014-01-19 19:27:00,62.3,25.0,30.12,North,10,1.0,1.0,24,0.00,,,0.00,weatherlink.com 1.10,2014-01-20 03:27:00,
2014-01-19 19:43:00,62.5,27.0,30.12,North,10,0.0,2.0,26,0.00,,,0.00,weatherlink.com 1.10,2014-01-20 03:43:00,
2014-01-19 19:57:00,62.0,27.0,30.12,NNE,20,1.0,2.0,26,0.00,,,0.00,weatherlink.com 1.10,2014-01-20 03:57:00,
2014-01-19 20:13:00,61.7,25.0,30.13,NNE,25,1.0,2.0,25,0.00,,,0.00,weatherlink.com 1.10,2014-01-20 04:13:00,
2014-01-19 20:27:00,61.7,24.0,30.13,NNE,25,1.0,1.0,24,0.00,,,0.00,weatherlink.com 1.10,2014-01-20 04:27:00,
2014-01-19 20:43:00,61.0,24.0,30.14,NNE,31,1.0,2.0,24,0.00,,,0.00,weatherlink.com 1.10,2014-01-20 04:43:00,
2014-01-19 20:58:00,60.7,24.0,30.14,NNE,30,1.0,2.0,24,0.00,,,0.00,weatherlink.com 1.10,2014-01-20 04:58:00,
2014-01-19 21:13:00,60.8,23.0,30.14,NNE,25,1.0,2.0,23,0.00,,,0.00,weatherlink.com 1.10,2014-01-20 05:13:00,
2014-01-19 21:28:00,60.7,24.0,30.14,NNE,25,1.0,2.0,24,0.00,,,0.00,weatherlink.com 1.10,2014-01-20 05:28:00,
2014-01-19 21:43:00,61.3,29.0,30.14,North,10,1.0,1.0,29,0.00,,,0.00,weatherlink.com 1.10,2014-01-20 05:43:00,
2014-01-19 21:58:00,60.6,30.0,30.15,NNE,27,1.0,1.0,31,0.00,,,0.00,weatherlink.com 1.10,2014-01-20 05:58:00,
2014-01-19 22:13:00,60.4,29.0,30.15,North,9,1.0,2.0,31,0.00,,,0.00,weatherlink.com 1.10,2014-01-20 06:13:00,
2014-01-19 22:28:00,60.5,29.0,30.16,North,9,1.0,1.0,30,0.00,,,0.00,weatherlink.com 1.10,2014-01-20 06:28:00,
2014-01-19 22:43:00,60.3,29.0,30.16,North,10,1.0,1.0,30,0.00,,,0.00,weatherlink.com 1.10,2014-01-20 06:43:00,
2014-01-19 22:58:00,60.2,29.0,30.16,North,9,1.0,1.0,31,0.00,,,0.00,weatherlink.com 1.10,2014-01-20 06:58:00,
2014-01-19 23:13:00,59.4,28.0,30.16,North,9,1.0,1.0,30,0.00,,,0.00,weatherlink.com 1.10,2014-01-20 07:13:00,
2014-01-19 23:28:00,58.7,25.0,30.16,North,9,0.0,1.0,28,0.00,,,0.00,weatherlink.com 1.10,2014-01-20 07:28:00,
2014-01-19 23:43:00,58.6,25.0,30.15,North,9,0.0,1.0,27,0.00,,,0.00,weatherlink.com 1.10,2014-01-20 07:43:00,
2014-01-19 23:58:00,57.6,25.0,30.15,North,9,0.0,1.0,29,0.00,,,0.00,weatherlink.com 1.10,2014-01-20 07:58:00,